Change the Weather History Date:

Sunday, September 15, 2013

  Actual Average Record
Temperature  
Mean Temperature 64 °F -  
Max Temperature 78 °F - - ()
Min Temperature 50 °F - - ()
Degree Days  
Heating Degree Days 1    
Growing Degree Days 14 (Base 50)    
Moisture  
Dew Point 36 °F    
Average Humidity 39    
Maximum Humidity 62    
Minimum Humidity 16    
Precipitation  
Precipitation 0.00 in - - ()
Sea Level Pressure  
Sea Level Pressure 30.03 in    
Wind  
Wind Speed 4 mph ()    
Max Wind Speed 8 mph    
Max Gust Speed -    
Visibility 6.2 miles    
Events      
T = Trace of Precipitation, MM = Missing Value Source: Averaged Metar Reports

Daily Weather History Graph

Daily Weather History Graph

Search for Another Location

Airport or City:

Trip Planner

Search our weather history database for the weather conditions in past years. The results will help you decide how hot, cold, wet, or windy it might be!

Date:

Astronomy

Sep. 15, 2013 Rise Set
Actual Time 7:13 AM EEST 7:41 PM EEST
Civil Twilight 6:46 AM EEST 8:08 PM EEST
Nautical Twilight 6:13 AM EEST 8:40 PM EEST
Astronomical Twilight 5:40 AM EEST 9:13 PM EEST
Moon 4:55 PM EEST (9/15) 2:30 AM EEST (9/15)
Length of Visible Light 13h 22m
Length of Day
12h 28m
Waxing Gibbous, 79% of the Moon is Illuminated
Sep 15
Waxing Gibbous
Sep 19
Full
Sep 27
Last Quarter
Oct 5
New
Oct 12
First Quarter

Hourly Weather History & Observations

Time (EEST) Temp. Dew Point Humidity Pressure Visibility Wind Dir Wind Speed Gust Speed Precip Events Conditions
12:20 AM 57.2 °F 35.6 °F 44% 30.09 in - Variable 3.5 mph - N/A   Unknown
12:50 AM 55.4 °F 37.4 °F 51% 30.09 in - North 6.9 mph - N/A   Unknown
1:20 AM 53.6 °F 37.4 °F 54% 30.09 in - West 4.6 mph - N/A   Unknown
1:50 AM 50.0 °F 37.4 °F 62% 30.09 in - Variable 3.5 mph - N/A   Unknown
2:20 AM 55.4 °F 35.6 °F 47% 30.09 in - NNW 5.8 mph - N/A   Unknown
2:50 AM 51.8 °F 37.4 °F 58% 30.09 in - NNW 4.6 mph - N/A   Unknown
3:20 AM 53.6 °F 37.4 °F 54% 30.09 in - NW 4.6 mph - N/A   Unknown
3:50 AM 55.4 °F 37.4 °F 51% 30.06 in - NNW 6.9 mph - N/A   Unknown
4:20 AM 51.8 °F 37.4 °F 58% 30.06 in - NNW 4.6 mph - N/A   Unknown
4:50 AM 51.8 °F 37.4 °F 58% 30.06 in - NNW 5.8 mph - N/A   Unknown
5:20 AM 51.8 °F 37.4 °F 58% 30.06 in - NNW 6.9 mph - N/A   Unknown
5:50 AM 53.6 °F 37.4 °F 54% 30.06 in - NW 5.8 mph - N/A   Unknown
6:20 AM 51.8 °F 37.4 °F 58% 30.06 in - NW 5.8 mph - N/A   Unknown
6:50 AM 53.6 °F 37.4 °F 54% 30.06 in - NW 4.6 mph - N/A   Unknown
7:20 AM 51.8 °F 37.4 °F 58% 30.06 in - NNW 6.9 mph - N/A   Unknown
7:50 AM 55.4 °F 37.4 °F 51% 30.06 in - NNW 6.9 mph - N/A   Unknown
8:20 AM 57.2 °F 37.4 °F 48% 30.06 in - NW 6.9 mph - N/A   Unknown
8:50 AM 60.8 °F 37.4 °F 42% 30.06 in - Variable 1.2 mph - N/A   Unknown
9:20 AM 62.6 °F 35.6 °F 37% 30.06 in - Variable 2.3 mph - N/A   Unknown
9:50 AM 66.2 °F 33.8 °F 30% 30.06 in - Variable 2.3 mph - N/A   Unknown
10:20 AM 66.2 °F 37.4 °F 35% 30.06 in - Variable 3.5 mph - N/A   Unknown
10:50 AM 68.0 °F 35.6 °F 30% 30.06 in - Variable 2.3 mph - N/A   Unknown
11:20 AM 69.8 °F 33.8 °F 27% 30.06 in - Variable 3.5 mph - N/A   Unknown
11:50 AM 71.6 °F 32.0 °F 23% 30.06 in - Variable 3.5 mph - N/A   Unknown
12:20 PM 73.4 °F 32.0 °F 22% 30.06 in - NNE 5.8 mph - N/A   Unknown
12:50 PM 75.2 °F 32.0 °F 21% 30.04 in - Variable 3.5 mph - N/A   Unknown
1:20 PM 75.2 °F 32.0 °F 21% 30.04 in - Variable 3.5 mph - N/A   Unknown
1:50 PM 75.2 °F 32.0 °F 21% 30.04 in - Variable 3.5 mph - N/A   Unknown
2:20 PM 77.0 °F 32.0 °F 19% 30.01 in - Variable 2.3 mph - N/A   Unknown
2:50 PM 77.0 °F 30.2 °F 18% 30.01 in 6.2 mi SW 6.9 mph - N/A   Scattered Clouds
3:50 PM 77.0 °F 32.0 °F 19% 29.98 in 6.2 mi SSE 8.1 mph - N/A   Scattered Clouds
4:50 PM 78.8 °F 32.0 °F 18% 29.95 in 6.2 mi Calm Calm - N/A   Scattered Clouds
5:50 PM 78.8 °F 28.4 °F 16% 29.95 in 6.2 mi West 8.1 mph - N/A   Scattered Clouds
6:50 PM 77.0 °F 35.6 °F 22% 29.92 in 6.2 mi West 6.9 mph - N/A   Scattered Clouds
7:50 PM 73.4 °F 33.8 °F 23% 29.92 in - Calm Calm - N/A   Clear
8:50 PM 69.8 °F 35.6 °F 28% 29.95 in - NW 5.8 mph - N/A   Clear
9:20 PM 68.0 °F 39.2 °F 35% 29.95 in - WNW 5.8 mph - N/A   Unknown
9:50 PM 66.2 °F 39.2 °F 37% 29.95 in - West 4.6 mph - N/A   Unknown
10:20 PM 66.2 °F 39.2 °F 37% 29.95 in - NNW 5.8 mph - N/A   Unknown
10:50 PM 64.4 °F 41.0 °F 42% 29.95 in - NNW 4.6 mph - N/A   Unknown
11:20 PM 62.6 °F 41.0 °F 45% 29.95 in - WNW 4.6 mph - N/A   Unknown
11:50 PM 60.8 °F 42.8 °F 52% 29.95 in - Variable 3.5 mph - N/A   Unknown